Location: 10048 Water Well
(33.8501°N, 106.8364°W)
Time: 02:53:46
(UTC+00:00)

IGS 5A - Visible Passes

Search period start: 17 March 2026 00:00
Search period end: 27 March 2026 00:00
Orbit: 551 x 554 km, 97.4° (Epoch: 8 January)

Date Brightness Start Highest point End Pass type
(mag) Time Alt. Az. Time Alt. Az. Time Alt. Az.
17 Mar 6.5 11:50:38 10° NE 11:53:06 16° E 11:55:33 10° SE visible
18 Mar 6.5 11:46:55 10° ENE 11:49:05 14° E 11:51:14 10° SE visible
19 Mar 6.6 11:43:17 10° ENE 11:45:03 13° E 11:46:50 10° ESE visible
20 Mar 6.8 11:39:48 10° ENE 11:41:01 11° E 11:42:15 10° ESE visible
